GW1898 Weather Reports


Display with metric or nautical units.
time (UTC)temp
F
wind
direction
speed
MPH
gust
MPH
rain 1hr
in
rain 24hr
in
rain mn
in
humidity
%
barometer
mb
20260510060050 56 0 0.0 0.0 0.00 0.00 0.00 91 1010.2
20260510054544 56 0 0.0 0.0 0.00 0.00 0.00 90 1010.1
20260510053046 57 0 0.0 0.0 0.00 0.00 0.00 89 1010.2
20260510051544 57 0 0.0 0.0 0.00 0.00 0.00 90 1010.3
20260510050043 57 0 0.0 0.0 0.00 0.00 0.00 88 1010.3
20260510044548 58 0 0.0 0.0 0.00 0.00 0.00 87 1010.2
20260510043105 58 0 0.0 0.0 0.00 0.00 0.00 86 1010.5
20260510041550 58 0 0.0 0.0 0.00 0.00 0.00 86 1010.3
20260510040049 59 0 0.0 0.0 0.00 0.00 0.00 85 1010.2
20260510034540 59 0 0.0 0.0 0.00 0.00 0.00 83 1010.1
20260510033043 60 0 0.0 0.0 0.00 0.00 0.00 82 1010.0
20260510031551 61 0 0.0 0.0 0.00 0.00 0.00 80 1010.1
20260510030049 62 0 0.0 0.0 0.00 0.00 0.00 79 1010.1
20260510024544 62 0 0.0 0.0 0.00 0.00 0.00 79 1009.9
20260510023040 63 0 0.0 0.0 0.00 0.00 0.00 76 1009.8
20260510021549 64 0 0.0 0.0 0.00 0.00 0.00 74 1009.9
20260510020047 65 0 0.0 0.0 0.00 0.00 0.00 73 1009.5
20260510014541 65 0 0.0 1.0 0.00 0.00 0.00 72 1009.5
20260510013037 65 210 0.0 2.0 0.00 0.00 0.00 71 1009.2
20260510011543 66 198 2.0 6.0 0.00 0.00 0.00 70 1009.0
20260510010042 66 171 0.0 3.0 0.00 0.00 0.00 69 1008.8
20260510004542 66 0 0.0 0.0 0.00 0.00 0.00 70 1008.8
20260510003039 67 0 0.0 0.0 0.00 0.00 0.00 68 1008.7
20260510001540 68 0 0.0 0.0 0.00 0.00 0.00 67 1008.4
20260510000051 70 0 0.0 0.0 0.00 0.00 0.00 61 1008.2
20260509234547 71 0 0.0 0.0 0.00 0.00 0.00 59 1008.1
20260509233046 73 0 0.0 0.0 0.00 0.00 0.00 54 1008.1
20260509231541 74 0 0.0 3.0 0.00 0.00 0.00 52 1008.2
20260509230040 76 170 1.0 3.0 0.00 0.00 0.00 48 1008.1
20260509224550 77 0 0.0 1.0 0.00 0.00 0.00 50 1008.0
20260509223049 75 0 0.0 1.0 0.00 0.00 0.00 51 1008.2
20260509221602 76 0 0.0 5.0 0.00 0.00 0.00 49 1008.3
20260509220044 76 0 0.0 6.0 0.00 0.00 0.00 49 1008.2
20260509214542 76 186 1.0 8.0 0.00 0.00 0.00 50 1008.3
20260509213041 77 169 1.0 8.0 0.00 0.00 0.00 49 1008.3
20260509211544 77 122 1.0 7.0 0.00 0.00 0.00 48 1008.4
20260509210052 76 295 1.0 9.0 0.00 0.00 0.00 50 1008.2
20260509204551 76 165 4.0 11.0 0.00 0.00 0.00 50 1008.1
20260509203047 76 164 3.0 10.0 0.00 0.00 0.00 50 1008.1
20260509201549 76 270 0.0 5.0 0.00 0.00 0.00 51 1008.3
20260509200051 75 246 1.0 11.0 0.00 0.00 0.00 51 1008.5
20260509194546 74 172 3.0 9.0 0.00 0.00 0.00 52 1008.6
20260509193050 73 336 2.0 8.0 0.00 0.00 0.00 55 1008.9
20260509191546 73 167 1.0 7.0 0.00 0.00 0.00 56 1009.0
20260509190049 71 211 3.0 9.0 0.00 0.00 0.00 57 1009.0
20260509184548 70 297 0.0 5.0 0.00 0.00 0.00 59 1009.4
20260509183043 70 81 1.0 6.0 0.00 0.00 0.00 58 1009.8
20260509181546 69 157 0.0 7.0 0.00 0.00 0.00 59 1009.7
20260509180052 68 159 1.0 8.0 0.00 0.00 0.00 59 1010.1
20260509174542 69 0 2.0 6.0 0.00 0.00 0.00 58 1010.3
20260509173040 69 255 0.0 3.0 0.00 0.00 0.00 58 1010.3
20260509171546 69 284 1.0 6.0 0.00 0.00 0.00 57 1010.4
20260509170040 69 116 1.0 7.0 0.00 0.00 0.00 56 1010.3
20260509164554 70 175 3.0 10.0 0.00 0.00 0.00 55 1010.3
20260509163042 70 112 1.0 9.0 0.00 0.00 0.00 56 1010.4
20260509161548 69 153 2.0 9.0 0.00 0.00 0.00 57 1010.4
20260509160042 68 157 1.0 6.0 0.00 0.00 0.00 59 1010.5
20260509154546 68 140 1.0 9.0 0.00 0.00 0.00 58 1010.9
20260509153053 70 303 1.0 7.0 0.00 0.00 0.00 57 1010.8
20260509151547 70 334 1.0 8.0 0.00 0.00 0.00 57 1010.8
20260509150048 67 288 1.0 7.0 0.00 0.00 0.00 61 1011.1
20260509144540 65 214 2.0 9.0 0.00 0.00 0.00 63 1011.3
20260509143041 65 174 2.0 7.0 0.00 0.00 0.00 63 1011.4
20260509141549 64 240 1.0 8.0 0.00 0.00 0.00 65 1011.4
20260509140059 63 215 2.0 7.0 0.00 0.00 0.00 66 1011.4
20260509134615 62 178 2.0 14.0 0.00 0.00 0.00 67 1011.5
20260509133041 62 0 0.0 9.0 0.00 0.00 0.00 68 1011.6
20260509131549 61 0 0.0 5.0 0.00 0.00 0.00 69 1011.5
20260509130041 60 144 1.0 9.0 0.00 0.00 0.00 71 1011.8
20260509124539 60 315 1.0 5.0 0.00 0.00 0.00 69 1011.8
20260509123050 59 139 1.0 7.0 0.00 0.00 0.00 69 1011.6
20260509121543 59 325 1.0 8.0 0.00 0.00 0.00 69 1011.7
20260509120043 58 0 1.0 8.0 0.00 0.00 0.00 71 1011.8
20260509114544 57 209 2.0 10.0 0.00 0.00 0.00 70 1011.7
20260509113051 57 255 1.0 11.0 0.00 0.00 0.00 68 1011.7
20260509111546 57 219 2.0 8.0 0.00 0.00 0.00 66 1011.5
20260509110047 58 175 1.0 6.0 0.00 0.00 0.00 65 1011.6
20260509104542 58 175 2.0 9.0 0.00 0.00 0.00 63 1011.4
20260509103041 58 210 1.0 7.0 0.00 0.00 0.00 62 1011.4
20260509101549 58 180 1.0 7.0 0.00 0.00 0.00 62 1011.3
20260509100046 58 0 1.0 5.0 0.00 0.00 0.00 61 1011.2
20260509094546 59 194 1.0 6.0 0.00 0.00 0.00 61 1011.0
20260509093041 59 158 0.0 4.0 0.00 0.00 0.00 62 1011.1
20260509091540 58 0 1.0 7.0 0.00 0.00 0.00 62 1011.2
20260509090041 59 0 0.0 5.0 0.00 0.00 0.00 61 1011.3
20260509084550 59 195 0.0 4.0 0.00 0.00 0.00 60 1011.4
20260509083044 58 159 1.0 6.0 0.00 0.00 0.00 60 1011.4
20260509081549 58 166 0.0 5.0 0.00 0.00 0.00 61 1011.5
20260509080042 58 270 0.0 3.0 0.00 0.00 0.00 61 1011.7
20260509074552 58 143 0.0 8.0 0.00 0.00 0.00 62 1011.8
20260509073041 58 190 0.0 7.0 0.00 0.00 0.00 62 1012.0
20260509071541 57 0 1.0 5.0 0.00 0.00 0.00 61 1012.0
20260509070048 57 168 1.0 6.0 0.00 0.00 0.00 61 1011.9
20260509064556 56 174 1.0 4.0 0.00 0.00 0.00 62 1012.2
20260509063045 56 218 0.0 4.0 0.00 0.00 0.00 63 1012.4
20260509061544 56 171 1.0 5.0 0.00 0.00 0.00 62 1012.3